Year,Month,Day,Hour,Minute,Value (Times are PST for temperature in C)
2014,06,21,00,00,9.90
2014,06,21,00,01,9.80
2014,06,21,00,02,9.80
2014,06,21,00,03,9.80
2014,06,21,00,04,9.70
2014,06,21,00,05,9.70
2014,06,21,00,06,9.70
2014,06,21,00,07,9.70
2014,06,21,00,08,9.70
2014,06,21,00,09,9.70
2014,06,21,00,10,9.70
2014,06,21,00,11,9.70
2014,06,21,00,12,9.70
2014,06,21,00,13,9.70
2014,06,21,00,14,9.60
2014,06,21,00,15,9.60
2014,06,21,00,16,9.60
2014,06,21,00,17,9.50
2014,06,21,00,18,9.50
2014,06,21,00,19,9.50
2014,06,21,00,20,9.40
2014,06,21,00,21,9.40
2014,06,21,00,22,9.40
2014,06,21,00,23,9.30
2014,06,21,00,24,9.30
2014,06,21,00,25,9.20
2014,06,21,00,26,9.20
2014,06,21,00,27,9.20
2014,06,21,00,28,9.20
2014,06,21,00,29,9.10
2014,06,21,00,30,9.10
2014,06,21,00,31,9.00
2014,06,21,00,32,9.00
2014,06,21,00,33,9.00
2014,06,21,00,34,8.90
2014,06,21,00,35,8.90
2014,06,21,00,36,8.90
2014,06,21,00,37,8.80
2014,06,21,00,38,8.80
2014,06,21,00,39,8.80
2014,06,21,00,40,8.70
2014,06,21,00,41,8.70
2014,06,21,00,42,8.70
2014,06,21,00,43,8.80
2014,06,21,00,44,8.80
2014,06,21,00,45,8.80
2014,06,21,00,46,8.80
2014,06,21,00,47,8.70
2014,06,21,00,48,8.70
2014,06,21,00,49,8.70
2014,06,21,00,50,8.60
2014,06,21,00,51,8.60
2014,06,21,00,52,8.50
2014,06,21,00,53,8.50
2014,06,21,00,54,8.40
2014,06,21,00,55,8.40
2014,06,21,00,56,8.40
2014,06,21,00,57,8.40
2014,06,21,00,58,8.30
2014,06,21,00,59,8.30
2014,06,21,01,00,8.30
2014,06,21,01,01,8.30
2014,06,21,01,02,8.30
2014,06,21,01,03,8.30
2014,06,21,01,04,8.30
2014,06,21,01,05,8.30
2014,06,21,01,06,8.20
2014,06,21,01,07,8.20
2014,06,21,01,08,8.20
2014,06,21,01,09,8.20
2014,06,21,01,10,8.20
2014,06,21,01,11,8.20
2014,06,21,01,12,8.20
2014,06,21,01,13,8.20
2014,06,21,01,14,8.20
2014,06,21,01,15,8.20
2014,06,21,01,16,8.20
2014,06,21,01,17,8.20
2014,06,21,01,18,8.20
2014,06,21,01,19,8.20
2014,06,21,01,20,8.20
2014,06,21,01,21,8.20
2014,06,21,01,22,8.20
2014,06,21,01,23,8.20
2014,06,21,01,24,8.20
2014,06,21,01,25,8.20
2014,06,21,01,26,8.20
2014,06,21,01,27,8.20
2014,06,21,01,28,8.20
2014,06,21,01,29,8.20
2014,06,21,01,30,8.20
2014,06,21,01,31,8.10
2014,06,21,01,32,8.10
2014,06,21,01,33,8.10
2014,06,21,01,34,8.00
2014,06,21,01,35,8.00
2014,06,21,01,36,8.00
2014,06,21,01,37,8.00
2014,06,21,01,38,7.90
2014,06,21,01,39,7.90
2014,06,21,01,40,7.90
2014,06,21,01,41,7.90
2014,06,21,01,42,7.90
2014,06,21,01,43,7.90
2014,06,21,01,44,7.90
2014,06,21,01,45,7.90
2014,06,21,01,46,7.90
2014,06,21,01,47,7.90
2014,06,21,01,48,7.90
2014,06,21,01,49,7.90
2014,06,21,01,50,7.90
2014,06,21,01,51,7.90
2014,06,21,01,52,7.90
2014,06,21,01,53,7.90
2014,06,21,01,54,7.90
2014,06,21,01,55,7.90
2014,06,21,01,56,7.90
2014,06,21,01,57,7.80
2014,06,21,01,58,7.80
2014,06,21,01,59,7.80
2014,06,21,02,00,7.80
2014,06,21,02,01,7.80
2014,06,21,02,02,7.80
2014,06,21,02,03,7.80
2014,06,21,02,04,7.80
2014,06,21,02,05,7.80
2014,06,21,02,06,7.80
2014,06,21,02,07,7.80
2014,06,21,02,08,7.80
2014,06,21,02,09,7.80
2014,06,21,02,10,7.80
2014,06,21,02,11,7.80
2014,06,21,02,12,7.80
2014,06,21,02,13,7.80
2014,06,21,02,14,7.90
2014,06,21,02,15,7.90
2014,06,21,02,16,7.90
2014,06,21,02,17,7.90
2014,06,21,02,18,7.90
2014,06,21,02,19,7.90
2014,06,21,02,20,7.90
2014,06,21,02,21,7.90
2014,06,21,02,22,7.80
2014,06,21,02,23,7.80
2014,06,21,02,24,7.80
2014,06,21,02,25,7.80
2014,06,21,02,26,7.80
2014,06,21,02,27,7.80
2014,06,21,02,28,7.80
2014,06,21,02,29,7.80
2014,06,21,02,30,7.80
2014,06,21,02,31,7.80
2014,06,21,02,32,7.80
2014,06,21,02,33,7.80
2014,06,21,02,34,7.80
2014,06,21,02,35,7.80
2014,06,21,02,36,7.80
2014,06,21,02,37,7.80
2014,06,21,02,38,7.80
2014,06,21,02,39,7.80
2014,06,21,02,40,7.80
2014,06,21,02,41,7.80
2014,06,21,02,42,7.80
2014,06,21,02,43,7.80
2014,06,21,02,44,7.80
2014,06,21,02,45,7.80
2014,06,21,02,46,7.80
2014,06,21,02,47,7.80
2014,06,21,02,48,7.80
2014,06,21,02,49,7.80
2014,06,21,02,50,7.80
2014,06,21,02,51,7.80
2014,06,21,02,52,7.80
2014,06,21,02,53,7.80
2014,06,21,02,54,7.70
2014,06,21,02,55,7.70
2014,06,21,02,56,7.70
2014,06,21,02,57,7.70
2014,06,21,02,58,7.70
2014,06,21,02,59,7.70
2014,06,21,03,00,7.70
2014,06,21,03,01,7.70
2014,06,21,03,02,7.70
2014,06,21,03,03,7.70
2014,06,21,03,04,7.70
2014,06,21,03,05,7.70
2014,06,21,03,06,7.80
2014,06,21,03,07,7.80
2014,06,21,03,08,7.80
2014,06,21,03,09,7.80
2014,06,21,03,10,7.80
2014,06,21,03,11,7.80
2014,06,21,03,12,7.80
2014,06,21,03,13,7.80
2014,06,21,03,14,7.80
2014,06,21,03,15,7.80
2014,06,21,03,16,7.80
2014,06,21,03,17,7.80
2014,06,21,03,18,7.80
2014,06,21,03,19,7.70
2014,06,21,03,20,7.70
2014,06,21,03,21,7.70
2014,06,21,03,22,7.60
2014,06,21,03,23,7.60
2014,06,21,03,24,7.60
2014,06,21,03,25,7.50
2014,06,21,03,26,7.50
2014,06,21,03,27,7.50
2014,06,21,03,28,7.50
2014,06,21,03,29,7.50
2014,06,21,03,30,7.50
2014,06,21,03,31,7.50
2014,06,21,03,32,7.50
2014,06,21,03,33,7.50
2014,06,21,03,34,7.50
2014,06,21,03,35,7.60
2014,06,21,03,36,7.60
2014,06,21,03,37,7.60
2014,06,21,03,38,7.60
2014,06,21,03,39,7.50
2014,06,21,03,40,7.50
2014,06,21,03,41,7.50
2014,06,21,03,42,7.60
2014,06,21,03,43,7.60
2014,06,21,03,44,7.60
2014,06,21,03,45,7.60
2014,06,21,03,46,7.60
2014,06,21,03,47,7.60
2014,06,21,03,48,7.70
2014,06,21,03,49,7.70
2014,06,21,03,50,7.70
2014,06,21,03,51,7.70
2014,06,21,03,52,7.60
2014,06,21,03,53,7.60
2014,06,21,03,54,7.60
2014,06,21,03,55,7.50
2014,06,21,03,56,7.50
2014,06,21,03,57,7.50
2014,06,21,03,58,7.60
2014,06,21,03,59,7.60
2014,06,21,04,00,7.60
2014,06,21,04,01,7.60
2014,06,21,04,02,7.60
2014,06,21,04,03,7.60
2014,06,21,04,04,7.60
2014,06,21,04,05,7.60
2014,06,21,04,06,7.60
2014,06,21,04,07,7.60
2014,06,21,04,08,7.60
2014,06,21,04,09,7.60
2014,06,21,04,10,7.50
2014,06,21,04,11,7.50
2014,06,21,04,12,7.50
2014,06,21,04,13,7.50
2014,06,21,04,14,7.50
2014,06,21,04,15,7.50
2014,06,21,04,16,7.50
2014,06,21,04,17,7.50
2014,06,21,04,18,7.50
2014,06,21,04,19,7.40
2014,06,21,04,20,7.30
2014,06,21,04,21,7.30
2014,06,21,04,22,7.30
2014,06,21,04,23,7.20
2014,06,21,04,24,7.20
2014,06,21,04,25,7.20
2014,06,21,04,26,7.20
2014,06,21,04,27,7.20
2014,06,21,04,28,7.10
2014,06,21,04,29,7.00
2014,06,21,04,30,6.90
2014,06,21,04,31,6.80
2014,06,21,04,32,6.80
2014,06,21,04,33,6.80
2014,06,21,04,34,6.70
2014,06,21,04,35,6.70
2014,06,21,04,36,6.60
2014,06,21,04,37,6.60
2014,06,21,04,38,6.60
2014,06,21,04,39,6.60
2014,06,21,04,40,6.60
2014,06,21,04,41,6.60
2014,06,21,04,42,6.60
2014,06,21,04,43,6.60
2014,06,21,04,44,6.60
2014,06,21,04,45,6.60
2014,06,21,04,46,6.60
2014,06,21,04,47,6.60
2014,06,21,04,48,6.50
2014,06,21,04,49,6.40
2014,06,21,04,50,6.40
2014,06,21,04,51,6.40
2014,06,21,04,52,6.40
2014,06,21,04,53,6.40
2014,06,21,04,54,6.40
2014,06,21,04,55,6.40
2014,06,21,04,56,6.40
2014,06,21,04,57,6.40
2014,06,21,04,58,6.50
2014,06,21,04,59,6.60
2014,06,21,05,00,6.60
2014,06,21,05,01,6.60
2014,06,21,05,02,6.60
2014,06,21,05,03,6.60
2014,06,21,05,04,6.60
2014,06,21,05,05,6.60
2014,06,21,05,06,6.60
2014,06,21,05,07,6.60
2014,06,21,05,08,6.60
2014,06,21,05,09,6.70
2014,06,21,05,10,6.70
2014,06,21,05,11,6.60
2014,06,21,05,12,6.60
2014,06,21,05,13,6.60
2014,06,21,05,14,6.60
2014,06,21,05,15,6.60
2014,06,21,05,16,6.60
2014,06,21,05,17,6.60
2014,06,21,05,18,6.70
2014,06,21,05,19,6.70
2014,06,21,05,20,6.70
2014,06,21,05,21,6.70
2014,06,21,05,22,6.70
2014,06,21,05,23,6.70
2014,06,21,05,24,6.70
2014,06,21,05,25,6.70
2014,06,21,05,26,6.70
2014,06,21,05,27,6.70
2014,06,21,05,28,6.70
2014,06,21,05,29,6.70
2014,06,21,05,30,6.70
2014,06,21,05,31,6.70
2014,06,21,05,32,6.70
2014,06,21,05,33,6.60
2014,06,21,05,34,6.60
2014,06,21,05,35,6.60
2014,06,21,05,36,6.60
2014,06,21,05,37,6.60
2014,06,21,05,38,6.60
2014,06,21,05,39,6.60
2014,06,21,05,40,6.60
2014,06,21,05,41,6.60
2014,06,21,05,42,6.60
2014,06,21,05,43,6.60
2014,06,21,05,44,6.50
2014,06,21,05,45,6.40
2014,06,21,05,46,6.40
2014,06,21,05,47,6.40
2014,06,21,05,48,6.40
2014,06,21,05,49,6.40
2014,06,21,05,50,6.40
2014,06,21,05,51,6.30
2014,06,21,05,52,6.30
2014,06,21,05,53,6.30
2014,06,21,05,54,6.30
2014,06,21,05,55,6.20
2014,06,21,05,56,6.20
2014,06,21,05,57,6.20
2014,06,21,05,58,6.20
2014,06,21,05,59,6.20
2014,06,21,06,00,6.20
2014,06,21,06,01,6.20
2014,06,21,06,02,6.10
2014,06,21,06,03,6.10
2014,06,21,06,04,6.10
2014,06,21,06,05,6.10
2014,06,21,06,06,6.10
2014,06,21,06,07,6.10
2014,06,21,06,08,6.10
2014,06,21,06,09,6.10
2014,06,21,06,10,6.10
2014,06,21,06,11,6.10
2014,06,21,06,12,6.10
2014,06,21,06,13,6.20
2014,06,21,06,14,6.20
2014,06,21,06,15,6.20
2014,06,21,06,16,6.30
2014,06,21,06,17,6.30
2014,06,21,06,18,6.40
2014,06,21,06,19,6.40
2014,06,21,06,20,6.40
2014,06,21,06,21,6.50
2014,06,21,06,22,6.60
2014,06,21,06,23,6.60
2014,06,21,06,24,6.70
2014,06,21,06,25,6.70
2014,06,21,06,26,6.80
2014,06,21,06,27,6.90
2014,06,21,06,28,7.00
2014,06,21,06,29,7.10
2014,06,21,06,30,7.20
2014,06,21,06,31,7.30
2014,06,21,06,32,7.40
2014,06,21,06,33,7.40
2014,06,21,06,34,7.50
2014,06,21,06,35,7.50
2014,06,21,06,36,7.50
2014,06,21,06,37,7.60
2014,06,21,06,38,7.60
2014,06,21,06,39,7.70
2014,06,21,06,40,7.80
2014,06,21,06,41,7.80
2014,06,21,06,42,7.90
2014,06,21,06,43,7.90
2014,06,21,06,44,7.90
2014,06,21,06,45,7.90
2014,06,21,06,46,7.90
2014,06,21,06,47,7.90
2014,06,21,06,48,8.00
2014,06,21,06,49,8.10
2014,06,21,06,50,8.20
2014,06,21,06,51,8.20
2014,06,21,06,52,8.20
2014,06,21,06,53,8.30
2014,06,21,06,54,8.30
2014,06,21,06,55,8.30
2014,06,21,06,56,8.40
2014,06,21,06,57,8.50
2014,06,21,06,58,8.60
2014,06,21,06,59,8.70
2014,06,21,07,00,8.70
2014,06,21,07,01,8.80
2014,06,21,07,02,8.90
2014,06,21,07,03,8.90
2014,06,21,07,04,9.00
2014,06,21,07,05,9.10
2014,06,21,07,06,9.20
2014,06,21,07,07,9.30
2014,06,21,07,08,9.40
2014,06,21,07,09,9.40
2014,06,21,07,10,9.50
2014,06,21,07,11,9.60
2014,06,21,07,12,9.60
2014,06,21,07,13,9.60
2014,06,21,07,14,9.60
2014,06,21,07,15,9.60
2014,06,21,07,16,9.60
2014,06,21,07,17,9.60
2014,06,21,07,18,9.60
2014,06,21,07,19,9.50
2014,06,21,07,20,9.50
2014,06,21,07,21,9.50
2014,06,21,07,22,9.50
2014,06,21,07,23,9.50
2014,06,21,07,24,9.50
2014,06,21,07,25,9.50
2014,06,21,07,26,9.50
2014,06,21,07,27,9.50
2014,06,21,07,28,9.60
2014,06,21,07,29,9.60
2014,06,21,07,30,9.60
2014,06,21,07,31,9.70
2014,06,21,07,32,9.70
2014,06,21,07,33,9.70
2014,06,21,07,34,9.70
2014,06,21,07,35,9.70
2014,06,21,07,36,9.80
2014,06,21,07,37,9.80
2014,06,21,07,38,9.90
2014,06,21,07,39,9.90
2014,06,21,07,40,9.90
2014,06,21,07,41,9.90
2014,06,21,07,42,10.00
2014,06,21,07,43,10.10
2014,06,21,07,44,10.10
2014,06,21,07,45,10.10
2014,06,21,07,46,10.10
2014,06,21,07,47,10.10
2014,06,21,07,48,10.10
2014,06,21,07,49,10.10
2014,06,21,07,50,10.10
2014,06,21,07,51,10.00
2014,06,21,07,52,10.10
2014,06,21,07,53,10.10
2014,06,21,07,54,10.10
2014,06,21,07,55,10.10
2014,06,21,07,56,10.10
2014,06,21,07,57,10.10
2014,06,21,07,58,10.10
2014,06,21,07,59,10.10
2014,06,21,08,00,10.10
2014,06,21,08,01,10.10
2014,06,21,08,02,10.10
2014,06,21,08,03,10.10
2014,06,21,08,04,10.10
2014,06,21,08,05,10.20
2014,06,21,08,06,10.20
2014,06,21,08,07,10.20
2014,06,21,08,08,10.30
2014,06,21,08,09,10.30
2014,06,21,08,10,10.30
2014,06,21,08,11,10.40
2014,06,21,08,12,10.40
2014,06,21,08,13,10.40
2014,06,21,08,14,10.40
2014,06,21,08,15,10.30
2014,06,21,08,16,10.30
2014,06,21,08,17,10.30
2014,06,21,08,18,10.30
2014,06,21,08,19,10.40
2014,06,21,08,20,10.40
2014,06,21,08,21,10.40
2014,06,21,08,22,10.40
2014,06,21,08,23,10.50
2014,06,21,08,24,10.60
2014,06,21,08,25,10.60
2014,06,21,08,26,10.70
2014,06,21,08,27,10.70
2014,06,21,08,28,10.70
2014,06,21,08,29,10.80
2014,06,21,08,30,10.80
2014,06,21,08,31,10.80
2014,06,21,08,32,10.80
2014,06,21,08,33,10.80
2014,06,21,08,34,10.70
2014,06,21,08,35,10.70
2014,06,21,08,36,10.70
2014,06,21,08,37,10.70
2014,06,21,08,38,10.70
2014,06,21,08,39,10.80
2014,06,21,08,40,10.80
2014,06,21,08,41,10.80
2014,06,21,08,42,10.80
2014,06,21,08,43,10.80
2014,06,21,08,44,10.80
2014,06,21,08,45,10.80
2014,06,21,08,46,10.70
2014,06,21,08,47,10.70
2014,06,21,08,48,10.70
2014,06,21,08,49,10.70
2014,06,21,08,50,10.70
2014,06,21,08,51,10.70
2014,06,21,08,52,10.70
2014,06,21,08,53,10.70
2014,06,21,08,54,10.70
2014,06,21,08,55,10.70
2014,06,21,08,56,10.60
2014,06,21,08,57,10.70
2014,06,21,08,58,10.60
2014,06,21,08,59,10.60
2014,06,21,09,00,10.60
2014,06,21,09,01,10.60
2014,06,21,09,02,10.60
2014,06,21,09,03,10.70
2014,06,21,09,04,10.70
2014,06,21,09,05,10.70
2014,06,21,09,06,10.70
2014,06,21,09,07,10.70
2014,06,21,09,08,10.70
2014,06,21,09,09,10.70
2014,06,21,09,10,10.70
2014,06,21,09,11,10.70
2014,06,21,09,12,10.70
2014,06,21,09,13,10.80
2014,06,21,09,14,10.80
2014,06,21,09,15,10.90
2014,06,21,09,16,10.90
2014,06,21,09,17,11.00
2014,06,21,09,18,11.00
2014,06,21,09,19,11.10
2014,06,21,09,20,11.00
2014,06,21,09,21,10.90
2014,06,21,09,22,10.80
2014,06,21,09,23,10.80
2014,06,21,09,24,10.90
2014,06,21,09,25,10.90
2014,06,21,09,26,10.90
2014,06,21,09,27,10.90
2014,06,21,09,28,10.90
2014,06,21,09,29,10.90
2014,06,21,09,30,10.90
2014,06,21,09,31,10.90
2014,06,21,09,32,10.90
2014,06,21,09,33,10.90
2014,06,21,09,34,10.90
2014,06,21,09,35,10.80
2014,06,21,09,36,10.80
2014,06,21,09,37,10.90
2014,06,21,09,38,10.90
2014,06,21,09,39,11.00
2014,06,21,09,40,11.10
2014,06,21,09,41,11.20
2014,06,21,09,42,11.30
2014,06,21,09,43,11.40
2014,06,21,09,44,11.50
2014,06,21,09,45,11.60
2014,06,21,09,46,11.50
2014,06,21,09,47,11.40
2014,06,21,09,48,11.40
2014,06,21,09,49,11.40
2014,06,21,09,50,11.50
2014,06,21,09,51,11.60
2014,06,21,09,52,11.60
2014,06,21,09,53,11.60
2014,06,21,09,54,11.70
2014,06,21,09,55,11.70
2014,06,21,09,56,11.70
2014,06,21,09,57,11.70
2014,06,21,09,58,11.70
2014,06,21,09,59,11.80
2014,06,21,10,00,11.80
2014,06,21,10,01,11.80
2014,06,21,10,02,11.80
2014,06,21,10,03,11.80
2014,06,21,10,04,11.80
2014,06,21,10,05,11.80
2014,06,21,10,06,11.80
2014,06,21,10,07,11.80
2014,06,21,10,08,11.80
2014,06,21,10,09,11.80
2014,06,21,10,10,11.80
2014,06,21,10,11,11.80
2014,06,21,10,12,11.80
2014,06,21,10,13,11.90
2014,06,21,10,14,11.90
2014,06,21,10,15,11.90
2014,06,21,10,16,11.80
2014,06,21,10,17,11.80
2014,06,21,10,18,11.80
2014,06,21,10,19,11.80
2014,06,21,10,20,11.90
2014,06,21,10,21,12.00
2014,06,21,10,22,12.00
2014,06,21,10,23,11.90
2014,06,21,10,24,11.90
2014,06,21,10,25,11.90
2014,06,21,10,26,11.80
2014,06,21,10,27,11.90
2014,06,21,10,28,11.90
2014,06,21,10,29,11.90
2014,06,21,10,30,11.90
2014,06,21,10,31,11.90
2014,06,21,10,32,11.80
2014,06,21,10,33,11.80
2014,06,21,10,34,11.90
2014,06,21,10,35,12.00
2014,06,21,10,36,12.00
2014,06,21,10,37,12.00
2014,06,21,10,38,11.90
2014,06,21,10,39,11.90
2014,06,21,10,40,11.90
2014,06,21,10,41,11.80
2014,06,21,10,42,11.80
2014,06,21,10,43,11.80
2014,06,21,10,44,11.80
2014,06,21,10,45,11.70
2014,06,21,10,46,11.60
2014,06,21,10,47,11.60
2014,06,21,10,48,11.50
2014,06,21,10,49,11.40
2014,06,21,10,50,11.40
2014,06,21,10,51,11.40
2014,06,21,10,52,11.60
2014,06,21,10,53,11.60
2014,06,21,10,54,11.70
2014,06,21,10,55,11.80
2014,06,21,10,56,11.80
2014,06,21,10,57,11.90
2014,06,21,10,58,12.00
2014,06,21,10,59,12.10
2014,06,21,11,00,12.20
2014,06,21,11,01,12.30
2014,06,21,11,02,12.40
2014,06,21,11,03,12.60
2014,06,21,11,04,12.70
2014,06,21,11,05,12.90
2014,06,21,11,06,12.90
2014,06,21,11,07,13.00
2014,06,21,11,08,13.10
2014,06,21,11,09,13.20
2014,06,21,11,10,13.30
2014,06,21,11,11,13.40
2014,06,21,11,12,13.50
2014,06,21,11,13,13.60
2014,06,21,11,14,13.70
2014,06,21,11,15,13.80
2014,06,21,11,16,13.90
2014,06,21,11,17,13.90
2014,06,21,11,18,13.90
2014,06,21,11,19,13.90
2014,06,21,11,20,13.90
2014,06,21,11,21,14.00
2014,06,21,11,22,14.00
2014,06,21,11,23,14.10
2014,06,21,11,24,14.20
2014,06,21,11,25,14.20
2014,06,21,11,26,14.40
2014,06,21,11,27,14.50
2014,06,21,11,28,14.60
2014,06,21,11,29,14.60
2014,06,21,11,30,14.60
2014,06,21,11,31,14.60
2014,06,21,11,32,14.60
2014,06,21,11,33,14.60
2014,06,21,11,34,14.70
2014,06,21,11,35,14.70
2014,06,21,11,36,14.60
2014,06,21,11,37,14.40
2014,06,21,11,38,14.30
2014,06,21,11,39,14.20
2014,06,21,11,40,14.20
2014,06,21,11,41,14.20
2014,06,21,11,42,14.20
2014,06,21,11,43,14.20
2014,06,21,11,44,14.30
2014,06,21,11,45,14.30
2014,06,21,11,46,14.40
2014,06,21,11,47,14.40
2014,06,21,11,48,14.50
2014,06,21,11,49,14.50
2014,06,21,11,50,14.60
2014,06,21,11,51,14.60
2014,06,21,11,52,14.70
2014,06,21,11,53,14.70
2014,06,21,11,54,14.80
2014,06,21,11,55,14.90
2014,06,21,11,56,15.00
2014,06,21,11,57,15.10
2014,06,21,11,58,15.10
2014,06,21,11,59,15.10
2014,06,21,12,00,15.20
2014,06,21,12,01,15.10
2014,06,21,12,02,15.10
2014,06,21,12,03,15.00
2014,06,21,12,04,15.00
2014,06,21,12,05,15.00
2014,06,21,12,06,15.10
2014,06,21,12,07,15.20
2014,06,21,12,08,15.20
2014,06,21,12,09,15.20
2014,06,21,12,10,15.40
2014,06,21,12,11,15.50
2014,06,21,12,12,15.50
2014,06,21,12,13,15.60
2014,06,21,12,14,15.50
2014,06,21,12,15,15.50
2014,06,21,12,16,15.60
2014,06,21,12,17,15.60
2014,06,21,12,18,15.60
2014,06,21,12,19,15.60
2014,06,21,12,20,15.50
2014,06,21,12,21,15.50
2014,06,21,12,22,15.50
2014,06,21,12,23,15.50
2014,06,21,12,24,15.40
2014,06,21,12,25,15.50
2014,06,21,12,26,15.50
2014,06,21,12,27,15.50
2014,06,21,12,28,15.30
2014,06,21,12,29,15.30
2014,06,21,12,30,15.30
2014,06,21,12,31,15.30
2014,06,21,12,32,15.40
2014,06,21,12,33,15.40
2014,06,21,12,34,15.50
2014,06,21,12,35,15.50
2014,06,21,12,36,15.60
2014,06,21,12,37,15.70
2014,06,21,12,38,15.80
2014,06,21,12,39,15.80
2014,06,21,12,40,15.90
2014,06,21,12,41,15.90
2014,06,21,12,42,15.90
2014,06,21,12,43,16.10
2014,06,21,12,44,16.10
2014,06,21,12,45,16.20
2014,06,21,12,46,16.30
2014,06,21,12,47,16.40
2014,06,21,12,48,16.40
2014,06,21,12,49,16.50
2014,06,21,12,50,16.60
2014,06,21,12,51,16.60
2014,06,21,12,52,16.50
2014,06,21,12,53,16.40
2014,06,21,12,54,16.40
2014,06,21,12,55,16.40
2014,06,21,12,56,16.40
2014,06,21,12,57,16.50
2014,06,21,12,58,16.70
2014,06,21,12,59,16.70
2014,06,21,13,00,16.60
2014,06,21,13,01,16.50
2014,06,21,13,02,16.40
2014,06,21,13,03,16.40
2014,06,21,13,04,16.40
2014,06,21,13,05,16.30
2014,06,21,13,06,16.10
2014,06,21,13,07,15.80
2014,06,21,13,08,15.60
2014,06,21,13,09,15.40
2014,06,21,13,10,15.30
2014,06,21,13,11,15.30
2014,06,21,13,12,15.30
2014,06,21,13,13,15.30
2014,06,21,13,14,15.20
2014,06,21,13,15,15.30
2014,06,21,13,16,15.40
2014,06,21,13,17,15.40
2014,06,21,13,18,15.50
2014,06,21,13,19,15.40
2014,06,21,13,20,15.30
2014,06,21,13,21,15.20
2014,06,21,13,22,15.20
2014,06,21,13,23,15.10
2014,06,21,13,24,15.00
2014,06,21,13,25,14.80
2014,06,21,13,26,14.60
2014,06,21,13,27,14.50
2014,06,21,13,28,14.40
2014,06,21,13,29,14.30
2014,06,21,13,30,14.10
2014,06,21,13,31,14.00
2014,06,21,13,32,13.90
2014,06,21,13,33,13.80
2014,06,21,13,34,13.70
2014,06,21,13,35,13.70
2014,06,21,13,36,13.60
2014,06,21,13,37,13.50
2014,06,21,13,38,13.40
2014,06,21,13,39,13.30
2014,06,21,13,40,13.30
2014,06,21,13,41,13.40
2014,06,21,13,42,13.40
2014,06,21,13,43,13.40
2014,06,21,13,44,13.40
2014,06,21,13,45,13.50
2014,06,21,13,46,13.50
2014,06,21,13,47,13.50
2014,06,21,13,48,13.50
2014,06,21,13,49,13.60
2014,06,21,13,50,13.60
2014,06,21,13,51,13.60
2014,06,21,13,52,13.50
2014,06,21,13,53,13.30
2014,06,21,13,54,13.40
2014,06,21,13,55,13.40
2014,06,21,13,56,13.30
2014,06,21,13,57,13.30
2014,06,21,13,58,13.30
2014,06,21,13,59,13.40
2014,06,21,14,00,13.60
2014,06,21,14,01,13.60
2014,06,21,14,02,13.60
2014,06,21,14,03,13.50
2014,06,21,14,04,13.60
2014,06,21,14,05,13.70
2014,06,21,14,06,13.80
2014,06,21,14,07,13.90
2014,06,21,14,08,13.90
2014,06,21,14,09,14.00
2014,06,21,14,10,13.90
2014,06,21,14,11,13.80
2014,06,21,14,12,13.80
2014,06,21,14,13,13.90
2014,06,21,14,14,13.90
2014,06,21,14,15,13.80
2014,06,21,14,16,13.80
2014,06,21,14,17,13.90
2014,06,21,14,18,13.90
2014,06,21,14,19,13.90
2014,06,21,14,20,13.80
2014,06,21,14,21,13.90
2014,06,21,14,22,13.80
2014,06,21,14,23,13.70
2014,06,21,14,24,13.70
2014,06,21,14,25,13.60
2014,06,21,14,26,13.50
2014,06,21,14,27,13.50
2014,06,21,14,28,13.50
2014,06,21,14,29,13.30
2014,06,21,14,30,13.30
2014,06,21,14,31,13.30
2014,06,21,14,32,13.30
2014,06,21,14,33,13.20
2014,06,21,14,34,13.20
2014,06,21,14,35,13.10
2014,06,21,14,36,13.10
2014,06,21,14,37,13.00
2014,06,21,14,38,13.00
2014,06,21,14,39,13.10
2014,06,21,14,40,13.20
2014,06,21,14,41,13.30
2014,06,21,14,42,13.30
2014,06,21,14,43,13.30
2014,06,21,14,44,13.30
2014,06,21,14,45,13.40
2014,06,21,14,46,13.50
2014,06,21,14,47,13.60
2014,06,21,14,48,13.70
2014,06,21,14,49,13.70
2014,06,21,14,50,13.70
2014,06,21,14,51,13.50
2014,06,21,14,52,13.40
2014,06,21,14,53,13.30
2014,06,21,14,54,13.40
2014,06,21,14,55,13.30
2014,06,21,14,56,13.20
2014,06,21,14,57,13.10
2014,06,21,14,58,13.10
2014,06,21,14,59,13.20
2014,06,21,15,00,13.30
2014,06,21,15,01,13.50
2014,06,21,15,02,13.60
2014,06,21,15,03,13.70
2014,06,21,15,04,13.60
2014,06,21,15,05,13.60
2014,06,21,15,06,13.60
2014,06,21,15,07,13.70
2014,06,21,15,08,13.80
2014,06,21,15,09,14.00
2014,06,21,15,10,14.10
2014,06,21,15,11,14.20
2014,06,21,15,12,14.20
2014,06,21,15,13,14.30
2014,06,21,15,14,14.20
2014,06,21,15,15,14.40
2014,06,21,15,16,14.50
2014,06,21,15,17,14.60
2014,06,21,15,18,14.60
2014,06,21,15,19,14.60
2014,06,21,15,20,14.60
2014,06,21,15,21,14.60
2014,06,21,15,22,14.70
2014,06,21,15,23,14.80
2014,06,21,15,24,14.80
2014,06,21,15,25,14.80
2014,06,21,15,26,14.70
2014,06,21,15,27,14.70
2014,06,21,15,28,14.70
2014,06,21,15,29,14.80
2014,06,21,15,30,14.80
2014,06,21,15,31,14.80
2014,06,21,15,32,14.80
2014,06,21,15,33,14.90
2014,06,21,15,34,15.00
2014,06,21,15,35,15.20
2014,06,21,15,36,15.30
2014,06,21,15,37,15.50
2014,06,21,15,38,15.60
2014,06,21,15,39,15.80
2014,06,21,15,40,15.80
2014,06,21,15,41,15.70
2014,06,21,15,42,15.80
2014,06,21,15,43,15.80
2014,06,21,15,44,15.90
2014,06,21,15,45,15.90
2014,06,21,15,46,16.00
2014,06,21,15,47,16.10
2014,06,21,15,48,16.30
2014,06,21,15,49,16.40
2014,06,21,15,50,16.40
2014,06,21,15,51,16.40
2014,06,21,15,52,16.40
2014,06,21,15,53,16.40
2014,06,21,15,54,16.40
2014,06,21,15,55,16.40
2014,06,21,15,56,16.50
2014,06,21,15,57,16.50
2014,06,21,15,58,16.60
2014,06,21,15,59,16.60
2014,06,21,16,00,16.60
2014,06,21,16,01,16.70
2014,06,21,16,02,16.70
2014,06,21,16,03,16.60
2014,06,21,16,04,16.60
2014,06,21,16,05,16.50
2014,06,21,16,06,16.60
2014,06,21,16,07,16.70
2014,06,21,16,08,16.70
2014,06,21,16,09,16.60
2014,06,21,16,10,16.40
2014,06,21,16,11,16.40
2014,06,21,16,12,16.40
2014,06,21,16,13,16.40
2014,06,21,16,14,16.40
2014,06,21,16,15,16.30
2014,06,21,16,16,16.30
2014,06,21,16,17,16.30
2014,06,21,16,18,16.30
2014,06,21,16,19,16.30
2014,06,21,16,20,16.30
2014,06,21,16,21,16.30
2014,06,21,16,22,16.20
2014,06,21,16,23,16.20
2014,06,21,16,24,16.10
2014,06,21,16,25,16.10
2014,06,21,16,26,16.00
2014,06,21,16,27,15.90
2014,06,21,16,28,15.80
2014,06,21,16,29,15.70
2014,06,21,16,30,15.60
2014,06,21,16,31,15.60
2014,06,21,16,32,15.60
2014,06,21,16,33,15.60
2014,06,21,16,34,15.50
2014,06,21,16,35,15.40
2014,06,21,16,36,15.30
2014,06,21,16,37,15.20
2014,06,21,16,38,15.20
2014,06,21,16,39,15.20
2014,06,21,16,40,15.20
2014,06,21,16,41,15.20
2014,06,21,16,42,15.20
2014,06,21,16,43,15.30
2014,06,21,16,44,15.30
2014,06,21,16,45,15.30
2014,06,21,16,46,15.30
2014,06,21,16,47,15.30
2014,06,21,16,48,15.40
2014,06,21,16,49,15.50
2014,06,21,16,50,15.50
2014,06,21,16,51,15.60
2014,06,21,16,52,15.60
2014,06,21,16,53,15.60
2014,06,21,16,54,15.70
2014,06,21,16,55,15.80
2014,06,21,16,56,15.80
2014,06,21,16,57,15.80
2014,06,21,16,58,15.80
2014,06,21,16,59,15.80
2014,06,21,17,00,15.80
2014,06,21,17,01,15.80
2014,06,21,17,02,15.80
2014,06,21,17,03,15.80
2014,06,21,17,04,15.80
2014,06,21,17,05,15.80
2014,06,21,17,06,15.90
2014,06,21,17,07,16.00
2014,06,21,17,08,16.10
2014,06,21,17,09,16.10
2014,06,21,17,10,16.20
2014,06,21,17,11,16.30
2014,06,21,17,12,16.30
2014,06,21,17,13,16.40
2014,06,21,17,14,16.50
2014,06,21,17,15,16.60
2014,06,21,17,16,16.60
2014,06,21,17,17,16.60
2014,06,21,17,18,16.70
2014,06,21,17,19,16.70
2014,06,21,17,20,16.80
2014,06,21,17,21,16.80
2014,06,21,17,22,16.90
2014,06,21,17,23,16.90
2014,06,21,17,24,16.90
2014,06,21,17,25,16.80
2014,06,21,17,26,16.70
2014,06,21,17,27,16.70
2014,06,21,17,28,16.70
2014,06,21,17,29,16.70
2014,06,21,17,30,16.70
2014,06,21,17,31,16.60
2014,06,21,17,32,16.70
2014,06,21,17,33,16.60
2014,06,21,17,34,16.60
2014,06,21,17,35,16.50
2014,06,21,17,36,16.40
2014,06,21,17,37,16.40
2014,06,21,17,38,16.40
2014,06,21,17,39,16.40